Starlink 11402

operational
NORAD ID: 61874 Int'l Des: 2024-204 Owner: SPXS Country: US Constellation: starlink
LEOCIRCULAR

Über Starlink 11402

Beschreibung wird geladen...

Live-Position

3D-Globus wird geladen...

Nächste Überflüge

Höhenverlauf

Altitude vs Time

uPlot chart will show altitude changes over time

Zweizeiliger Elementsatz

1 61874U 24204A 25352.40720559 .00000509 00000-0 90648-5 0 9993
2 61874 53.1601 37.3259 0001343 60.5191 299.5961 15.69712951 64733
Epoch: 18. Dez. 2025 • Age: 23 hours

Aktueller Status

Höhe 362.9 km
Geschwindigkeit 7.70 km/s
Subsatellitenpunkt 40.04°N, 52.93°W
Startdatum 9. Nov. 2024
Alter 1.1 years
Typ internet

Technische Details

Klassifizierung Payload
Masse 960.00 kg
Trockenmasse 910.00 kg
Gesamtmasse 960.00 kg
Länge 0.30 m
Durchmesser 4.10 m
Spannweite 29.00 m
Form Box + pan
Hersteller SPXS
Bus-Typ Starlink V2MD
Phasenstatus In Orbit
Besitzer/Staat SPXS/US

Große Konstellationen

Loading constellations...